When you browse on this site, cookies collect data to enhance your experience and personalize the content and advertising you see.
Visit our Privacy Policy to learn more. By continuing to use the site, you agree to this use of cookies and data.
  • In United Kingdom
  • List of Countries
  • For 7 days
  • Water Temperature
  • Satellite Maps
  • Weather Map
  • Weather Widgets
  • user-avatar
    Login

    Hourly Weather Hasselt

    Today, 21 February, Thursday

    Time Temperature Precipitation Wind Pressure Humidity
    00:00 +5°C° 0 mm 3 mps 765 mmHg 92%
    01:00 +4°C° 0 mm 3 mps 765 mmHg 93%
    02:00 +4°C° 0 mm 3 mps 765 mmHg 93%
    03:00 +4°C° 0 mm 3 mps 766 mmHg 93%
    04:00 +4°C° 0 mm 3 mps 766 mmHg 93%
    05:00 +4°C° 0 mm 3 mps 766 mmHg 93%
    06:00 +4°C° 0 mm 3 mps 766 mmHg 93%
    07:00 +5°C° 0 mm 3 mps 766 mmHg 90%
    08:00 +7°C° 0 mm 3 mps 766 mmHg 86%
    09:00 +7°C° 0 mm 4 mps 767 mmHg 83%
    10:00 +8°C° 0 mm 4 mps 767 mmHg 77%
    11:00 +11°C° 0 mm 3 mps 767 mmHg 72%
    12:00 +12°C° 0 mm 3 mps 767 mmHg 67%
    13:00 +12°C° 0 mm 3 mps 767 mmHg 66%
    14:00 +13°C° 0 mm 3 mps 767 mmHg 66%
    15:00 +13°C° 0 mm 3 mps 767 mmHg 65%
    16:00 +12°C° 0 mm 3 mps 767 mmHg 70%
    17:00 +12°C° 0 mm 2 mps 768 mmHg 76%
    18:00 +10°C° 0 mm 2 mps 768 mmHg 81%
    19:00 +9°C° 0 mm 2 mps 768 mmHg 84%
    20:00 +8°C° 0 mm 2 mps 769 mmHg 86%
    21:00 +8°C° 0 mm 2 mps 769 mmHg 89%
    22:00 +8°C° 0 mm 2 mps 769 mmHg 90%
    23:00 +7°C° 0 mm 2 mps 770 mmHg 90%

    Tomorrow, 22 February, Friday

    Time Temperature Precipitation Wind Pressure Humidity
    00:00 +7°C° 0 mm 2 mps 770 mmHg 91%
    01:00 +7°C° 0 mm 2 mps 770 mmHg 92%
    02:00 +7°C° 0 mm 1 mps 770 mmHg 92%
    03:00 +7°C° 0 mm 1 mps 770 mmHg 92%
    04:00 +7°C° 0 mm 1 mps 771 mmHg 92%
    05:00 +7°C° 0 mm 1 mps 771 mmHg 91%
    06:00 +7°C° 0 mm 1 mps 771 mmHg 91%
    07:00 +8°C° 0 mm 1 mps 772 mmHg 88%
    08:00 +9°C° 0 mm 1 mps 772 mmHg 85%
    09:00 +10°C° 0 mm 1 mps 772 mmHg 82%
    10:00 +10°C° 0 mm 0 mps 772 mmHg 79%
    11:00 +11°C° 0 mm 0 mps 772 mmHg 76%
    12:00 +12°C° 0 mm 0 mps 773 mmHg 74%
    13:00 +13°C° 0 mm 1 mps 772 mmHg 73%
    14:00 +14°C° 0 mm 1 mps 772 mmHg 72%
    15:00 +15°C° 0 mm 2 mps 772 mmHg 72%
    16:00 +14°C° 0 mm 2 mps 772 mmHg 77%
    17:00 +13°C° 0 mm 2 mps 773 mmHg 82%
    18:00 +12°C° 0 mm 2 mps 773 mmHg 88%
    19:00 +10°C° 0 mm 2 mps 773 mmHg 90%
    20:00 +9°C° 0 mm 2 mps 773 mmHg 92%
    21:00 +9°C° 0 mm 2 mps 773 mmHg 94%
    22:00 +8°C° 0 mm 2 mps 773 mmHg 94%
    23:00 +8°C° 0 mm 2 mps 773 mmHg 93%

    Day after tomorrow, 23 February, Saturday

    Time Temperature Precipitation Wind Pressure Humidity
    00:00 +7°C° 0 mm 2 mps 773 mmHg 93%
    01:00 +7°C° 0 mm 2 mps 773 mmHg 92%
    02:00 +7°C° 0 mm 2 mps 773 mmHg 92%
    03:00 +7°C° 0 mm 1 mps 773 mmHg 91%
    04:00 +7°C° 0 mm 1 mps 773 mmHg 90%
    05:00 +7°C° 0 mm 1 mps 773 mmHg 90%
    06:00 +6°C° 0 mm 1 mps 773 mmHg 89%
    07:00 +6°C° 0 mm 2 mps 773 mmHg 83%
    08:00 +8°C° 0 mm 2 mps 773 mmHg 77%
    09:00 +9°C° 0 mm 2 mps 773 mmHg 71%
    10:00 +10°C° 0 mm 3 mps 773 mmHg 63%
    11:00 +12°C° 0 mm 3 mps 773 mmHg 55%
    12:00 +14°C° 0 mm 3 mps 773 mmHg 47%
    13:00 +14°C° 0 mm 3 mps 773 mmHg 46%
    14:00 +16°C° 0 mm 3 mps 773 mmHg 45%
    15:00 +16°C° 0 mm 3 mps 772 mmHg 44%
    16:00 +13°C° 0 mm 3 mps 772 mmHg 47%
    17:00 +11°C° 0 mm 3 mps 772 mmHg 50%
    18:00 +10°C° 0 mm 3 mps 773 mmHg 54%
    19:00 +9°C° 0 mm 3 mps 773 mmHg 54%
    20:00 +8°C° 0 mm 2 mps 773 mmHg 54%
    21:00 +7°C° 0 mm 2 mps 773 mmHg 54%
    22:00 +7°C° 0 mm 2 mps 773 mmHg 52%
    23:00 +7°C° 0 mm 1 mps 773 mmHg 51%

    24 February, Sunday

    Time Temperature Precipitation Wind Pressure Humidity
    00:00 +7°C° 0 mm 1 mps 773 mmHg 50%
    01:00 +7°C° 0 mm 1 mps 773 mmHg 50%
    02:00 +6°C° 0 mm 1 mps 773 mmHg 50%
    03:00 +6°C° 0 mm 1 mps 773 mmHg 50%
    04:00 +6°C° 0 mm 1 mps 773 mmHg 51%
    05:00 +6°C° 0 mm 1 mps 773 mmHg 51%
    06:00 +5°C° 0 mm 1 mps 773 mmHg 52%
    07:00 +7°C° 0 mm 1 mps 773 mmHg 50%
    08:00 +8°C° 0 mm 1 mps 773 mmHg 48%
    09:00 +9°C° 0 mm 1 mps 774 mmHg 47%
    10:00 +11°C° 0 mm 1 mps 773 mmHg 44%
    11:00 +13°C° 0 mm 1 mps 773 mmHg 41%
    12:00 +15°C° 0 mm 1 mps 773 mmHg 37%
    13:00 +15°C° 0 mm 2 mps 773 mmHg 39%
    14:00 +15°C° 0 mm 2 mps 773 mmHg 41%
    15:00 +16°C° 0 mm 2 mps 773 mmHg 43%
    16:00 +14°C° 0 mm 2 mps 773 mmHg 48%
    17:00 +12°C° 0 mm 2 mps 773 mmHg 52%
    18:00 +10°C° 0 mm 2 mps 773 mmHg 57%
    19:00 +9°C° 0 mm 2 mps 773 mmHg 57%
    20:00 +9°C° 0 mm 2 mps 774 mmHg 58%
    21:00 +8°C° 0 mm 2 mps 774 mmHg 59%
    22:00 +8°C° 0 mm 2 mps 774 mmHg 59%
    23:00 +9°C° 0 mm 1 mps 774 mmHg 59%

    25 February, Monday

    Time Temperature Precipitation Wind Pressure Humidity
    00:00 +9°C° 0 mm 1 mps 774 mmHg 59%
    01:00 +8°C° 0 mm 1 mps 774 mmHg 59%
    02:00 +8°C° 0 mm 1 mps 774 mmHg 60%
    03:00 +8°C° 0 mm 1 mps 774 mmHg 60%
    04:00 +8°C° 0 mm 1 mps 774 mmHg 61%
    05:00 +8°C° 0 mm 1 mps 774 mmHg 61%
    06:00 +8°C° 0 mm 1 mps 774 mmHg 62%
    07:00 +9°C° 0 mm 1 mps 774 mmHg 60%
    08:00 +10°C° 0 mm 1 mps 774 mmHg 58%
    09:00 +10°C° 0 mm 2 mps 774 mmHg 56%
    10:00 +13°C° 0 mm 2 mps 774 mmHg 53%
    11:00 +14°C° 0 mm 2 mps 774 mmHg 49%
    12:00 +16°C° 0 mm 2 mps 774 mmHg 45%
    13:00 +17°C° 0 mm 2 mps 774 mmHg 46%
    14:00 +17°C° 0 mm 2 mps 773 mmHg 46%
    15:00 +17°C° 0 mm 2 mps 773 mmHg 47%
    16:00 +15°C° 0 mm 2 mps 773 mmHg 52%
    17:00 +13°C° 0 mm 2 mps 773 mmHg 58%
    18:00 +10°C° 0 mm 2 mps 773 mmHg 64%
    19:00 +10°C° 0 mm 2 mps 773 mmHg 66%
    20:00 +9°C° 0 mm 2 mps 773 mmHg 68%
    21:00 +8°C° 0 mm 2 mps 773 mmHg 70%
    22:00 +8°C° 0 mm 2 mps 773 mmHg 70%
    23:00 +7°C° 0 mm 2 mps 773 mmHg 69%

    26 February, Tuesday

    Time Temperature Precipitation Wind Pressure Humidity
    00:00 +7°C° 0 mm 2 mps 772 mmHg 69%
    01:00 +7°C° 0 mm 1 mps 772 mmHg 69%
    02:00 +7°C° 0 mm 1 mps 772 mmHg 69%
    03:00 +6°C° 0 mm 1 mps 771 mmHg 69%
    04:00 +6°C° 0 mm 1 mps 771 mmHg 70%
    05:00 +6°C° 0 mm 1 mps 771 mmHg 71%
    06:00 +6°C° 0 mm 1 mps 771 mmHg 71%
    07:00 +7°C° 0 mm 1 mps 771 mmHg 67%
    08:00 +9°C° 0 mm 1 mps 771 mmHg 62%
    09:00 +9°C° 0 mm 0 mps 771 mmHg 58%
    10:00 +12°C° 0 mm 1 mps 771 mmHg 52%
    11:00 +14°C° 0 mm 1 mps 770 mmHg 47%
    12:00 +15°C° 0 mm 1 mps 770 mmHg 41%
    13:00 +16°C° 0 mm 1 mps 769 mmHg 41%
    14:00 +18°C° 0 mm 1 mps 769 mmHg 40%
    15:00 +18°C° 0 mm 1 mps 768 mmHg 40%
    16:00 +15°C° 0 mm 1 mps 768 mmHg 46%
    17:00 +13°C° 0 mm 2 mps 768 mmHg 53%
    18:00 +12°C° 0 mm 2 mps 768 mmHg 59%
    19:00 +10°C° 0 mm 2 mps 768 mmHg 62%
    20:00 +9°C° 0 mm 2 mps 767 mmHg 65%
    21:00 +8°C° 0 mm 2 mps 767 mmHg 69%
    22:00 +8°C° 0 mm 2 mps 767 mmHg 71%
    23:00 +8°C° 0 mm 2 mps 767 mmHg 73%
    Show more